When you browse on this site, cookies collect data to enhance your experience and personalize the content and advertising you see.
Visit our Privacy Policy to learn more. By continuing to use the site, you agree to this use of cookies and data.
  • En España
  • Lista de países
  • Para 7 días
  • Temperatura del agua
  • El tiempo en el mapa
  • Informadores
  • user-avatar
    Iniciar sesión

    Tiempo cada hora Fier

    Hoy, 7 Abril, Martes

    Tiempo Temperatura Precipitaciones Viento Presión Humedad
    00:00 +10°C° 0 mm 3 mps 768 mmHg 63%
    01:00 +10°C° 0 mm 2 mps 767 mmHg 66%
    02:00 +10°C° 0 mm 2 mps 767 mmHg 66%
    03:00 +10°C° 0 mm 2 mps 767 mmHg 65%
    04:00 +10°C° 0 mm 3 mps 767 mmHg 65%
    05:00 +10°C° 0 mm 3 mps 767 mmHg 64%
    06:00 +11°C° 0 mm 3 mps 767 mmHg 63%
    07:00 +12°C° 0 mm 3 mps 767 mmHg 61%
    08:00 +14°C° 0 mm 3 mps 767 mmHg 52%
    09:00 +15°C° 0 mm 4 mps 767 mmHg 43%
    10:00 +18°C° 0 mm 4 mps 768 mmHg 33%
    11:00 +19°C° 0 mm 4 mps 767 mmHg 32%
    12:00 +19°C° 0 mm 4 mps 767 mmHg 31%
    13:00 +20°C° 0 mm 5 mps 767 mmHg 30%
    14:00 +20°C° 0 mm 4 mps 767 mmHg 32%
    15:00 +19°C° 0 mm 4 mps 767 mmHg 33%
    16:00 +19°C° 0 mm 4 mps 767 mmHg 35%
    17:00 +17°C° 0 mm 4 mps 767 mmHg 38%
    18:00 +14°C° 0 mm 4 mps 768 mmHg 42%
    19:00 +13°C° 0 mm 4 mps 768 mmHg 45%
    20:00 +12°C° 0 mm 4 mps 768 mmHg 46%
    21:00 +11°C° 0 mm 4 mps 769 mmHg 46%
    22:00 +11°C° 0 mm 4 mps 769 mmHg 47%
    23:00 +10°C° 0 mm 3 mps 769 mmHg 48%

    Mañana, 8 Abril, Miércoles

    Tiempo Temperatura Precipitaciones Viento Presión Humedad
    00:00 +10°C° 0 mm 3 mps 769 mmHg 50%
    01:00 +10°C° 0 mm 2 mps 769 mmHg 52%
    02:00 +9°C° 0 mm 2 mps 768 mmHg 53%
    03:00 +9°C° 0 mm 2 mps 768 mmHg 53%
    04:00 +8°C° 0 mm 2 mps 768 mmHg 54%
    05:00 +9°C° 0 mm 2 mps 768 mmHg 55%
    06:00 +10°C° 0 mm 3 mps 768 mmHg 56%
    07:00 +11°C° 0 mm 3 mps 768 mmHg 57%
    08:00 +13°C° 0 mm 3 mps 767 mmHg 51%
    09:00 +16°C° 0 mm 3 mps 767 mmHg 45%
    10:00 +18°C° 0 mm 3 mps 767 mmHg 39%
    11:00 +18°C° 0 mm 3 mps 767 mmHg 38%
    12:00 +19°C° 0 mm 4 mps 766 mmHg 37%
    13:00 +20°C° 0 mm 4 mps 766 mmHg 37%
    14:00 +19°C° 0 mm 5 mps 766 mmHg 40%
    15:00 +19°C° 0 mm 5 mps 765 mmHg 43%
    16:00 +17°C° 0 mm 6 mps 765 mmHg 47%
    17:00 +15°C° 0 mm 5 mps 765 mmHg 54%
    18:00 +13°C° 0 mm 4 mps 765 mmHg 61%
    19:00 +12°C° 0 mm 3 mps 765 mmHg 68%
    20:00 +11°C° 0 mm 3 mps 765 mmHg 69%
    21:00 +11°C° 0 mm 3 mps 765 mmHg 69%
    22:00 +10°C° 0 mm 2 mps 766 mmHg 69%
    23:00 +10°C° 0 mm 2 mps 765 mmHg 67%

    Pasado mañana, 9 Abril, Jueves

    Tiempo Temperatura Precipitaciones Viento Presión Humedad
    00:00 +10°C° 0 mm 2 mps 765 mmHg 64%
    01:00 +10°C° 0 mm 2 mps 765 mmHg 61%
    02:00 +9°C° 0 mm 2 mps 765 mmHg 59%
    03:00 +9°C° 0 mm 2 mps 765 mmHg 57%
    04:00 +9°C° 0 mm 2 mps 764 mmHg 55%
    05:00 +10°C° 0 mm 2 mps 764 mmHg 55%
    06:00 +12°C° 0 mm 2 mps 764 mmHg 55%
    07:00 +13°C° 0 mm 2 mps 764 mmHg 55%
    08:00 +15°C° 0 mm 2 mps 764 mmHg 51%
    09:00 +16°C° 0 mm 2 mps 764 mmHg 47%
    10:00 +18°C° 0 mm 2 mps 764 mmHg 43%
    11:00 +18°C° 0 mm 3 mps 764 mmHg 45%
    12:00 +19°C° 0 mm 4 mps 764 mmHg 46%
    13:00 +19°C° 0 mm 5 mps 763 mmHg 48%
    14:00 +19°C° 0 mm 5 mps 763 mmHg 51%
    15:00 +17°C° 0 mm 5 mps 763 mmHg 54%
    16:00 +17°C° 0 mm 5 mps 763 mmHg 58%
    17:00 +15°C° 0 mm 4 mps 763 mmHg 65%
    18:00 +14°C° 0 mm 3 mps 763 mmHg 72%
    19:00 +13°C° 0 mm 2 mps 763 mmHg 80%
    20:00 +13°C° 0 mm 2 mps 763 mmHg 80%
    21:00 +12°C° 0 mm 1 mps 763 mmHg 80%
    22:00 +12°C° 0 mm 1 mps 764 mmHg 80%
    23:00 +12°C° 0 mm 1 mps 763 mmHg 79%

    10 Abril, Viernes

    Tiempo Temperatura Precipitaciones Viento Presión Humedad
    00:00 +11°C° 0 mm 1 mps 763 mmHg 79%
    01:00 +11°C° 0 mm 1 mps 763 mmHg 79%
    02:00 +11°C° 0 mm 1 mps 763 mmHg 78%
    03:00 +11°C° 0 mm 1 mps 763 mmHg 78%
    04:00 +11°C° 0 mm 1 mps 763 mmHg 77%
    05:00 +12°C° 0 mm 1 mps 763 mmHg 74%
    06:00 +13°C° 0 mm 1 mps 763 mmHg 71%
    07:00 +14°C° 0 mm 1 mps 763 mmHg 68%
    08:00 +15°C° 0 mm 2 mps 763 mmHg 64%
    09:00 +17°C° 0 mm 2 mps 763 mmHg 59%
    10:00 +19°C° 0 mm 2 mps 763 mmHg 55%
    11:00 +19°C° 0 mm 3 mps 763 mmHg 55%
    12:00 +20°C° 0 mm 3 mps 763 mmHg 56%
    13:00 +20°C° 0 mm 4 mps 763 mmHg 56%
    14:00 +20°C° 0 mm 4 mps 762 mmHg 58%
    15:00 +19°C° 0 mm 3 mps 762 mmHg 59%
    16:00 +19°C° 0 mm 3 mps 762 mmHg 61%
    17:00 +17°C° 0 mm 3 mps 762 mmHg 67%
    18:00 +16°C° 0 mm 2 mps 762 mmHg 72%
    19:00 +14°C° 0 mm 1 mps 762 mmHg 78%
    20:00 +14°C° 0 mm 1 mps 763 mmHg 78%
    21:00 +13°C° 0 mm 1 mps 763 mmHg 78%
    22:00 +13°C° 0 mm 1 mps 763 mmHg 78%
    23:00 +13°C° 0 mm 1 mps 763 mmHg 78%

    11 Abril, Sábado

    Tiempo Temperatura Precipitaciones Viento Presión Humedad
    00:00 +13°C° 0 mm 1 mps 763 mmHg 78%
    01:00 +13°C° 0 mm 1 mps 763 mmHg 78%
    02:00 +13°C° 0 mm 1 mps 763 mmHg 77%
    03:00 +12°C° 0 mm 1 mps 763 mmHg 77%
    04:00 +12°C° 0 mm 1 mps 764 mmHg 77%
    05:00 +13°C° 0 mm 1 mps 764 mmHg 73%
    06:00 +14°C° 0 mm 1 mps 764 mmHg 69%
    07:00 +16°C° 0 mm 1 mps 764 mmHg 66%
    08:00 +18°C° 0 mm 1 mps 764 mmHg 61%
    09:00 +20°C° 0 mm 1 mps 764 mmHg 56%
    10:00 +22°C° 0 mm 1 mps 764 mmHg 51%
    11:00 +21°C° 0 mm 2 mps 764 mmHg 52%
    12:00 +21°C° 0 mm 2 mps 764 mmHg 54%
    13:00 +21°C° 0 mm 3 mps 764 mmHg 55%
    14:00 +21°C° 0 mm 3 mps 763 mmHg 58%
    15:00 +20°C° 0 mm 3 mps 763 mmHg 61%
    16:00 +20°C° 0 mm 2 mps 763 mmHg 64%
    17:00 +18°C° 0 mm 2 mps 763 mmHg 70%
    18:00 +16°C° 0 mm 1 mps 763 mmHg 76%
    19:00 +14°C° 0 mm 0 mps 763 mmHg 82%
    20:00 +14°C° 0 mm 0 mps 763 mmHg 82%
    21:00 +13°C° 0 mm 0 mps 764 mmHg 82%
    22:00 +14°C° 0 mm 1 mps 764 mmHg 81%
    23:00 +13°C° 0 mm 0 mps 764 mmHg 81%

    12 Abril, Domingo

    Tiempo Temperatura Precipitaciones Viento Presión Humedad
    00:00 +13°C° 0 mm 0 mps 764 mmHg 81%
    01:00 +12°C° 0 mm 0 mps 764 mmHg 81%
    02:00 +12°C° 0 mm 0 mps 763 mmHg 81%
    03:00 +12°C° 0 mm 0 mps 763 mmHg 80%
    04:00 +13°C° 0 mm 1 mps 763 mmHg 79%
    05:00 +13°C° 0 mm 0 mps 763 mmHg 76%
    06:00 +14°C° 0 mm 0 mps 763 mmHg 73%
    07:00 +15°C° 0 mm 0 mps 763 mmHg 70%
    08:00 +18°C° 0 mm 1 mps 763 mmHg 66%
    09:00 +20°C° 0 mm 1 mps 763 mmHg 61%
    10:00 +20°C° 0 mm 2 mps 763 mmHg 56%
    11:00 +20°C° 0 mm 2 mps 763 mmHg 55%
    12:00 +21°C° 0 mm 3 mps 763 mmHg 54%
    13:00 +21°C° 0 mm 4 mps 763 mmHg 52%
    14:00 +21°C° 0 mm 3 mps 762 mmHg 54%
    15:00 +20°C° 0 mm 3 mps 762 mmHg 55%
    16:00 +20°C° 0 mm 2 mps 762 mmHg 57%
    17:00 +18°C° 0 mm 2 mps 762 mmHg 63%
    18:00 +16°C° 0 mm 1 mps 762 mmHg 69%
    19:00 +14°C° 0 mm 0 mps 762 mmHg 75%
    20:00 +14°C° 0 mm 1 mps 762 mmHg 75%
    21:00 +14°C° 0 mm 1 mps 762 mmHg 75%
    22:00 +14°C° 0 mm 1 mps 762 mmHg 75%
    23:00 +14°C° 0 mm 1 mps 762 mmHg 75%
    Mostrar más